COSMOS 1547

导读

COSMOS 1547是前苏联(CIS)以"宇宙"系列命名的卫星,1984年4月4日08时发射入轨。该系列是苏联规模最大的卫星家族,涵盖军事侦察、科学试验等多类任务,统一编号命名的方式旨在隐藏卫星真实属性,增强保密程度。多数宇宙系列卫星完成任务后已退役,成为太空漂浮的空间碎片,部分失控核动力卫星再入大气层曾引发核污染担忧。

基本信息
目录编号:
14884
目录名称:
COSMOS 1547
国际标识:
1984-033A
轨道中心:
EARTH
卫星名称:
COSMOS 1547
卫星全名:
--
卫星状态:
在轨 (已飞行15414 天)
发射日期:
1984-04-04 UTC
国别 :
俄罗斯(独联体) (CIS)
星等 :
--
轨道信息
数据来源 国际轨道数据 AOE轨道数据
星历时间 2026-06-16T22:17:54+0800
18小时前
查看轨道信息
2026-06-15T10:00:00+0800
2天前
查看轨道信息
半长轴 26582.7km 26583.133km
偏心率 0.5692424 0.5692002
轨道倾角 72.775° 72.777°
近地点辐角 248.762° 248.829°
升交点赤经 330.714° 330.787°
平近点角 43.428° 32.776°
近地点 5072.563km 5073.871km
远地点 35336.563km 35336.121km
周期 718.883分钟 718.901分钟
每日圈数 2.003107 2.003058
详细信息
使用方式:
暂无
2D轨道图
3D轨道图
轨道高度分析图
轨道倾角分析图
轨道综合分析图
查看轨道综合分析图